GW3646 Weather Reports


Display with metric or nautical units.
time (UTC)temp
F
wind
direction
speed
MPH
gust
MPH
rain 1hr
in
rain 24hr
in
rain mn
in
humidity
%
barometer
mb
20260508025507 64 184 0.0 3.0 0.00 0.00 0.00 41 1011.6
20260508025003 64 266 0.0 3.0 0.00 0.00 0.00 41 1011.5
20260508024508 65 266 0.0 4.0 0.00 0.00 0.00 40 1011.4
20260508024004 65 266 1.0 4.0 0.00 0.00 0.00 39 1011.4
20260508023503 65 247 0.0 3.0 0.00 0.00 0.00 38 1011.3
20260508023011 66 134 0.0 4.0 0.00 0.00 0.00 38 1011.3
20260508022503 66 290 0.0 5.0 0.00 0.00 0.00 37 1011.3
20260508022006 66 223 1.0 5.0 0.00 0.00 0.00 37 1011.3
20260508021513 66 262 0.0 3.0 0.00 0.00 0.00 36 1011.2
20260508021004 66 294 1.0 2.0 0.00 0.00 0.00 35 1011.2
20260508020507 67 252 0.0 2.0 0.00 0.00 0.00 36 1011.2
20260508020025 67 211 0.0 2.0 0.00 0.00 0.00 35 1011.0
20260508015507 67 261 0.0 2.0 0.00 0.00 0.00 35 1010.9
20260508015008 68 261 0.0 2.0 0.00 0.00 0.00 34 1010.8
20260508014521 68 261 0.0 2.0 0.00 0.00 0.00 34 1010.8
20260508014011 69 261 0.0 6.0 0.00 0.00 0.00 34 1010.8
20260508013506 69 261 0.0 6.0 0.00 0.00 0.00 33 1010.6
20260508013007 69 210 0.0 4.0 0.00 0.00 0.00 33 1010.6
20260508012503 70 277 0.0 3.0 0.00 0.00 0.00 32 1010.6
20260508012003 70 184 0.0 4.0 0.00 0.00 0.00 32 1010.6
20260508011514 70 254 1.0 4.0 0.00 0.00 0.00 32 1010.5
20260508011002 71 249 0.0 3.0 0.00 0.00 0.00 32 1010.5
20260508010507 71 232 0.0 6.0 0.00 0.00 0.00 32 1010.5
20260508010016 72 254 1.0 7.0 0.00 0.00 0.00 31 1010.5
20260508005506 72 262 1.0 7.0 0.00 0.00 0.00 30 1010.4
20260508005006 72 281 2.0 7.0 0.00 0.00 0.00 30 1010.4
20260508004522 73 223 0.0 7.0 0.00 0.00 0.00 31 1010.4
20260508004010 73 284 1.0 7.0 0.00 0.00 0.00 30 1010.4
20260508003511 73 261 1.0 8.0 0.00 0.00 0.00 29 1010.4
20260508003033 74 250 1.0 8.0 0.00 0.00 0.00 29 1010.4
20260508002509 74 276 2.0 8.0 0.00 0.00 0.00 29 1010.5
20260508002003 74 144 1.0 7.0 0.00 0.00 0.00 28 1010.5
20260508001509 74 253 2.0 7.0 0.00 0.00 0.00 27 1010.5
20260508001004 75 270 1.0 7.0 0.00 0.00 0.00 27 1010.5
20260508000506 75 169 1.0 8.0 0.00 0.00 0.00 28 1010.6
20260508000011 76 202 2.0 8.0 0.00 0.00 0.00 27 1010.6
20260507235507 76 252 3.0 8.0 0.00 0.00 0.00 27 1010.5
20260507235006 76 255 2.0 7.0 0.00 0.00 0.00 25 1010.6
20260507234517 76 228 2.0 7.0 0.00 0.00 0.00 26 1010.6
20260507234007 76 265 2.0 7.0 0.00 0.00 0.00 26 1010.5
20260507233507 76 259 1.0 8.0 0.00 0.00 0.00 27 1010.6
20260507233032 77 262 3.0 8.0 0.00 0.00 0.00 26 1010.6
20260507232507 77 160 2.0 8.0 0.00 0.00 0.00 26 1010.7
20260507232010 77 221 3.0 8.0 0.00 0.00 0.00 26 1010.7
20260507231530 77 279 3.0 8.0 0.00 0.00 0.00 25 1010.8
20260507231009 78 324 1.0 6.0 0.00 0.00 0.00 27 1010.8
20260507230507 78 289 1.0 6.0 0.00 0.00 0.00 27 1010.9
20260507230013 78 230 0.0 7.0 0.00 0.00 0.00 27 1010.9
20260507225506 78 267 1.0 7.0 0.00 0.00 0.00 27 1011.1
20260507225011 78 239 1.0 9.0 0.00 0.00 0.00 28 1011.1
20260507224521 77 245 2.0 9.0 0.00 0.00 0.00 26 1011.2
20260507224008 78 253 1.0 6.0 0.00 0.00 0.00 26 1011.3
20260507223504 77 272 1.0 8.0 0.00 0.00 0.00 28 1011.3
20260507223020 77 248 2.0 10.0 0.00 0.00 0.00 26 1011.3
20260507222509 77 242 1.0 10.0 0.00 0.00 0.00 27 1011.3
20260507222006 77 268 1.0 12.0 0.00 0.00 0.00 26 1011.3
20260507221529 77 202 2.0 12.0 0.00 0.00 0.00 26 1011.4
20260507221010 77 182 2.0 7.0 0.00 0.00 0.00 27 1011.5
20260507220509 77 327 0.0 8.0 0.00 0.00 0.00 29 1011.5
20260507220029 77 132 2.0 8.0 0.00 0.00 0.00 26 1011.7
20260507215510 77 250 1.0 9.0 0.00 0.00 0.00 28 1011.7
20260507215009 77 188 2.0 9.0 0.00 0.00 0.00 27 1011.7
20260507214513 77 237 4.0 9.0 0.00 0.00 0.00 27 1011.7
20260507214004 77 250 1.0 7.0 0.00 0.00 0.00 27 1011.7
20260507213509 77 246 1.0 10.0 0.00 0.00 0.00 29 1011.9
20260507213022 76 221 2.0 10.0 0.00 0.00 0.00 27 1011.9
20260507212506 76 349 2.0 9.0 0.00 0.00 0.00 27 1011.9
20260507212007 76 259 1.0 8.0 0.00 0.00 0.00 28 1012.1
20260507211524 75 248 1.0 10.0 0.00 0.00 0.00 28 1012.2
20260507211007 75 250 3.0 10.0 0.00 0.00 0.00 30 1012.3
20260507210509 75 352 3.0 9.0 0.00 0.00 0.00 27 1012.3
20260507210026 75 228 3.0 11.0 0.00 0.00 0.00 31 1012.5
20260507205513 75 206 2.0 11.0 0.00 0.00 0.00 27 1012.6
20260507205007 75 238 4.0 9.0 0.00 0.00 0.00 28 1012.7
20260507204525 75 267 1.0 13.0 0.00 0.00 0.00 30 1012.7
20260507204010 75 243 3.0 13.0 0.00 0.00 0.00 29 1012.8
20260507203511 75 24 2.0 10.0 0.00 0.00 0.00 30 1012.9
20260507203017 74 28 1.0 8.0 0.00 0.00 0.00 32 1013.1
20260507202503 74 157 3.0 10.0 0.00 0.00 0.00 28 1013.2
20260507202005 74 227 3.0 10.0 0.00 0.00 0.00 29 1013.3
20260507201522 74 211 2.0 10.0 0.00 0.00 0.00 30 1013.5
20260507201008 74 199 3.0 10.0 0.00 0.00 0.00 31 1013.6
20260507200511 74 213 3.0 11.0 0.00 0.00 0.00 31 1013.7
20260507200023 74 244 2.0 11.0 0.00 0.00 0.00 32 1013.8
20260507195509 74 22 1.0 8.0 0.00 0.00 0.00 33 1013.8
20260507195010 74 101 2.0 13.0 0.00 0.00 0.00 32 1013.8
20260507194540 73 229 4.0 13.0 0.00 0.00 0.00 32 1014.0
20260507194008 73 271 1.0 10.0 0.00 0.00 0.00 33 1014.0
20260507193511 72 282 2.0 10.0 0.00 0.00 0.00 32 1014.0
20260507193030 71 264 2.0 9.0 0.00 0.00 0.00 33 1014.1
20260507192511 71 229 4.0 9.0 0.00 0.00 0.00 33 1014.3
20260507192010 71 224 3.0 9.0 0.00 0.00 0.00 34 1014.3
20260507191529 71 232 4.0 9.0 0.00 0.00 0.00 32 1014.5
20260507191007 70 244 2.0 9.0 0.00 0.00 0.00 39 1014.4
20260507190507 70 215 3.0 9.0 0.00 0.00 0.00 33 1014.4
20260507190023 70 273 3.0 10.0 0.00 0.00 0.00 36 1014.5
20260507185506 70 273 4.0 10.0 0.00 0.00 0.00 35 1014.7
20260507185004 70 259 2.0 10.0 0.00 0.00 0.00 37 1014.7
20260507184507 69 247 3.0 10.0 0.00 0.00 0.00 36 1014.8
20260507184004 69 205 2.0 10.0 0.00 0.00 0.00 36 1014.8
20260507183503 69 268 4.0 12.0 0.00 0.00 0.00 36 1015.0
20260507183015 69 226 4.0 12.0 0.00 0.00 0.00 38 1015.1
20260507182504 69 298 2.0 11.0 0.00 0.00 0.00 37 1015.3
20260507182004 68 34 3.0 11.0 0.00 0.00 0.00 37 1015.3
20260507181513 68 295 2.0 9.0 0.00 0.00 0.00 40 1015.4
20260507181011 67 272 2.0 9.0 0.00 0.00 0.00 39 1015.5
20260507180507 67 257 4.0 10.0 0.00 0.00 0.00 38 1015.6
20260507180028 67 246 5.0 10.0 0.00 0.00 0.00 41 1015.6
20260507175509 66 233 4.0 10.0 0.00 0.00 0.00 41 1015.6
20260507175007 66 202 2.0 11.0 0.00 0.00 0.00 43 1015.9
20260507174504 66 211 4.0 11.0 0.00 0.00 0.00 42 1015.9
20260507174003 66 144 2.0 11.0 0.00 0.00 0.00 44 1016.0
20260507173503 65 232 2.0 13.0 0.00 0.00 0.00 43 1016.0
20260507173004 65 194 4.0 13.0 0.00 0.00 0.00 43 1016.2
20260507172503 65 208 4.0 11.0 0.00 0.00 0.00 42 1016.3
20260507172002 65 11 1.0 11.0 0.00 0.00 0.00 46 1016.3
20260507171513 65 285 3.0 12.0 0.00 0.00 0.00 44 1016.4
20260507171005 64 288 3.0 18.0 0.00 0.00 0.00 44 1016.5
20260507170506 64 182 4.0 18.0 0.00 0.00 0.00 45 1016.6
20260507170016 64 180 4.0 18.0 0.00 0.00 0.00 46 1016.8
20260507165509 63 166 2.0 11.0 0.00 0.00 0.00 48 1017.0
20260507165008 63 250 4.0 12.0 0.00 0.00 0.00 47 1017.0
20260507164526 63 254 6.0 14.0 0.00 0.00 0.00 46 1017.1
20260507164010 63 250 3.0 14.0 0.00 0.00 0.00 48 1017.1
20260507163509 63 250 6.0 14.0 0.00 0.00 0.00 49 1017.2
20260507163003 62 216 5.0 11.0 0.00 0.00 0.00 48 1017.1
20260507162505 62 267 2.0 13.0 0.00 0.00 0.00 49 1017.4
20260507162004 62 254 2.0 13.0 0.00 0.00 0.00 50 1017.5
20260507161507 61 222 4.0 11.0 0.00 0.00 0.00 49 1017.4
20260507161003 61 244 2.0 11.0 0.00 0.00 0.00 51 1017.4
20260507160504 61 262 5.0 11.0 0.00 0.00 0.00 51 1017.4
20260507160012 60 27 4.0 12.0 0.00 0.00 0.00 52 1017.3
20260507155505 60 251 3.0 12.0 0.00 0.00 0.00 52 1017.4
20260507155004 60 268 4.0 12.0 0.00 0.00 0.00 53 1017.5
20260507154520 60 190 3.0 12.0 0.00 0.00 0.00 52 1017.5
20260507154009 60 270 3.0 12.0 0.00 0.00 0.00 54 1017.5
20260507153509 60 248 2.0 11.0 0.00 0.00 0.00 55 1017.6
20260507153021 59 281 3.0 11.0 0.00 0.00 0.00 55 1017.7
20260507152511 59 223 5.0 11.0 0.00 0.00 0.00 55 1017.7
20260507152010 59 250 5.0 11.0 0.00 0.00 0.00 55 1017.9
20260507151506 58 342 3.0 10.0 0.00 0.00 0.00 56 1018.0
20260507151003 58 228 4.0 13.0 0.00 0.00 0.00 56 1018.0
20260507150503 58 200 4.0 13.0 0.00 0.00 0.00 58 1018.1
20260507150011 58 281 2.0 10.0 0.00 0.00 0.00 59 1018.1
20260507145507 57 175 3.0 11.0 0.00 0.00 0.00 62 1018.1
20260507145004 57 268 2.0 11.0 0.00 0.00 0.00 61 1018.2
20260507144514 57 229 2.0 8.0 0.00 0.00 0.00 61 1018.3
20260507144005 57 257 2.0 7.0 0.00 0.00 0.00 63 1018.4
20260507143504 56 309 1.0 7.0 0.00 0.00 0.00 65 1018.4
20260507143022 55 294 1.0 9.0 0.00 0.00 0.00 68 1018.4
20260507142505 55 221 2.0 9.0 0.00 0.00 0.00 66 1018.4
20260507142008 55 223 2.0 9.0 0.00 0.00 0.00 68 1018.4
20260507141523 55 229 2.0 6.0 0.00 0.00 0.00 69 1018.5
20260507141007 54 17 1.0 5.0 0.00 0.00 0.00 70 1018.4
20260507140507 54 238 1.0 5.0 0.00 0.00 0.00 71 1018.6
20260507140028 53 181 1.0 11.0 0.00 0.00 0.00 73 1018.7
20260507135503 52 239 3.0 11.0 0.00 0.00 0.00 73 1018.7
20260507135006 52 239 2.0 7.0 0.00 0.00 0.00 74 1018.7
20260507134516 51 209 2.0 5.0 0.00 0.00 0.00 76 1018.7
20260507134004 51 244 2.0 5.0 0.00 0.00 0.00 79 1018.7
20260507133508 50 22 1.0 4.0 0.00 0.00 0.00 80 1018.7
20260507133018 50 234 0.0 6.0 0.00 0.00 0.00 82 1018.8
20260507132506 49 182 1.0 6.0 0.00 0.00 0.00 82 1018.8
20260507132014 49 266 2.0 4.0 0.00 0.00 0.00 83 1018.8
20260507131527 48 226 0.0 5.0 0.00 0.00 0.00 85 1018.7
20260507131007 48 261 1.0 5.0 0.00 0.00 0.00 86 1018.8
20260507130506 47 242 2.0 4.0 0.00 0.00 0.00 88 1018.8
20260507130026 46 223 0.0 4.0 0.00 0.00 0.00 89 1018.8
20260507125507 46 242 0.0 4.0 0.00 0.00 0.00 90 1018.8
20260507125011 46 78 0.0 3.0 0.00 0.00 0.00 91 1018.8
20260507124526 45 78 0.0 3.0 0.00 0.00 0.00 93 1018.8
20260507124004 45 78 0.0 3.0 0.00 0.00 0.00 94 1018.7
20260507123504 44 78 0.0 2.0 0.00 0.00 0.00 94 1018.7
20260507123015 43 78 0.0 0.0 0.00 0.00 0.00 94 1018.6
20260507122504 43 78 0.0 0.0 0.00 0.00 0.00 94 1018.7
20260507122008 42 78 0.0 0.0 0.00 0.00 0.00 93 1018.7
20260507121519 42 78 0.0 0.0 0.00 0.00 0.00 93 1018.7
20260507121008 42 78 0.0 0.0 0.00 0.00 0.00 93 1018.7
20260507120507 41 78 0.0 0.0 0.00 0.00 0.00 92 1018.7
20260507120037 41 78 0.0 0.0 0.00 0.00 0.00 92 1018.6
20260507115507 41 78 0.0 0.0 0.00 0.00 0.00 91 1018.5
20260507115011 41 78 0.0 0.0 0.00 0.00 0.00 91 1018.4
20260507114527 41 78 0.0 0.0 0.00 0.00 0.00 91 1018.4
20260507114010 42 78 0.0 0.0 0.00 0.00 0.00 92 1018.4
20260507113511 42 78 0.0 0.0 0.00 0.00 0.00 92 1018.3
20260507113038 42 78 0.0 0.0 0.00 0.00 0.00 91 1018.4
20260507112508 42 78 0.0 0.0 0.00 0.00 0.00 91 1018.3
20260507112007 42 78 0.0 0.0 0.00 0.00 0.00 90 1018.4
20260507111514 42 78 0.0 0.0 0.00 0.00 0.00 90 1018.3
20260507111009 42 78 0.0 0.0 0.00 0.00 0.00 91 1018.2
20260507110505 42 78 0.0 0.0 0.00 0.00 0.00 91 1018.2
20260507110020 42 78 0.0 0.0 0.00 0.00 0.00 91 1018.2
20260507105507 42 78 0.0 0.0 0.00 0.00 0.00 91 1018.2
20260507105006 43 78 0.0 0.0 0.00 0.00 0.00 90 1018.2
20260507104524 43 78 0.0 0.0 0.00 0.00 0.00 90 1018.2
20260507104012 43 78 0.0 0.0 0.00 0.00 0.00 90 1018.2
20260507103508 43 78 0.0 0.0 0.00 0.00 0.00 89 1018.3
20260507103023 43 78 0.0 0.0 0.00 0.00 0.00 90 1018.4
20260507102507 43 78 0.0 0.0 0.00 0.00 0.00 89 1018.6
20260507102011 43 78 0.0 0.0 0.00 0.00 0.00 89 1018.7
20260507101530 43 78 0.0 0.0 0.00 0.00 0.00 88 1018.6
20260507101007 43 78 0.0 0.0 0.00 0.00 0.00 89 1018.6
20260507100504 43 78 0.0 0.0 0.00 0.00 0.00 87 1018.6
20260507100024 44 78 0.0 0.0 0.00 0.00 0.00 87 1018.7
20260507095506 44 78 0.0 0.0 0.00 0.00 0.00 87 1018.6
20260507095009 44 78 0.0 0.0 0.00 0.00 0.00 87 1018.7
20260507094520 44 78 0.0 0.0 0.00 0.00 0.00 85 1018.7
20260507094007 44 78 0.0 0.0 0.00 0.00 0.00 83 1018.7
20260507093508 45 78 0.0 0.0 0.00 0.00 0.00 83 1018.7
20260507093024 45 78 0.0 0.0 0.00 0.00 0.00 83 1018.7
20260507092507 45 78 0.0 0.0 0.00 0.00 0.00 84 1018.7
20260507092004 46 78 0.0 0.0 0.00 0.00 0.00 84 1018.7
20260507091504 46 78 0.0 0.0 0.00 0.00 0.00 83 1018.7
20260507091005 46 78 0.0 0.0 0.00 0.00 0.00 82 1018.7
20260507090504 47 78 0.0 0.0 0.00 0.00 0.00 82 1018.7
20260507090007 47 78 0.0 0.0 0.00 0.00 0.00 81 1018.7
20260507085502 47 78 0.0 0.0 0.00 0.00 0.00 80 1018.7
20260507085004 48 78 0.0 0.0 0.00 0.00 0.00 80 1018.7
20260507084503 48 78 0.0 0.0 0.00 0.00 0.00 80 1018.6
20260507084003 48 78 0.0 0.0 0.00 0.00 0.00 79 1018.7
20260507083503 49 78 0.0 0.0 0.00 0.00 0.00 79 1018.8
20260507083006 49 78 0.0 0.0 0.00 0.00 0.00 78 1018.8
20260507082503 49 78 0.0 0.0 0.00 0.00 0.00 78 1018.9
20260507082003 49 78 0.0 0.0 0.00 0.00 0.00 78 1018.8
20260507081507 49 78 0.0 0.0 0.00 0.00 0.00 78 1018.8
20260507081004 49 78 0.0 0.0 0.00 0.00 0.00 78 1018.9
20260507080504 49 78 0.0 0.0 0.00 0.00 0.00 78 1018.9
20260507080005 49 78 0.0 0.0 0.00 0.00 0.00 78 1018.9
20260507075503 49 78 0.0 0.0 0.00 0.00 0.00 78 1019.0
20260507075004 49 78 0.0 0.0 0.00 0.00 0.00 78 1019.1
20260507074506 49 78 0.0 0.0 0.00 0.00 0.00 79 1019.1
20260507074005 49 78 0.0 0.0 0.00 0.00 0.00 78 1019.1
20260507073503 49 78 0.0 0.0 0.00 0.00 0.00 78 1019.1
20260507073003 49 78 0.0 0.0 0.00 0.00 0.00 78 1019.1
20260507072503 49 78 0.0 0.0 0.00 0.00 0.00 78 1019.1
20260507072002 49 78 0.0 0.0 0.00 0.00 0.00 78 1019.2
20260507071505 49 78 0.0 0.0 0.00 0.00 0.00 78 1019.3
20260507071003 49 78 0.0 0.0 0.00 0.00 0.00 77 1019.2
20260507070504 49 78 0.0 0.0 0.00 0.00 0.00 77 1019.3
20260507070010 49 78 0.0 0.0 0.00 0.00 0.00 77 1019.3
20260507065507 49 78 0.0 0.0 0.00 0.00 0.00 77 1019.5
20260507065004 49 78 0.0 0.0 0.00 0.00 0.00 76 1019.5
20260507064508 49 78 0.0 1.0 0.00 0.00 0.00 76 1019.5
20260507064006 49 78 0.0 1.0 0.00 0.00 0.00 77 1019.4
20260507063504 49 78 0.0 0.0 0.00 0.00 0.00 78 1019.3
20260507063007 49 78 0.0 0.0 0.00 0.00 0.00 78 1019.3
20260507062504 49 78 0.0 0.0 0.00 0.00 0.00 78 1019.4
20260507062003 49 78 0.0 0.0 0.00 0.00 0.00 79 1019.3
20260507061509 48 78 0.0 0.0 0.00 0.00 0.00 79 1019.4
20260507061006 48 78 0.0 0.0 0.00 0.00 0.00 79 1019.3
20260507060503 48 78 0.0 0.0 0.00 0.00 0.00 79 1019.3
20260507060006 48 78 0.0 0.0 0.00 0.00 0.00 80 1019.5
20260507055504 47 78 0.0 0.0 0.00 0.00 0.00 81 1019.6
20260507055004 47 78 0.0 0.0 0.00 0.00 0.00 82 1019.6
20260507054508 47 78 0.0 0.0 0.00 0.00 0.00 82 1019.6
20260507054004 47 78 0.0 0.0 0.00 0.00 0.00 81 1019.7
20260507053504 47 78 0.0 0.0 0.00 0.00 0.00 81 1019.7
20260507053010 47 78 0.0 0.0 0.00 0.00 0.00 81 1019.5
20260507052502 47 78 0.0 0.0 0.00 0.00 0.00 80 1019.5
20260507052004 47 78 0.0 0.0 0.00 0.00 0.00 80 1019.5
20260507051510 47 78 0.0 0.0 0.00 0.00 0.00 80 1019.5
20260507051005 47 78 0.0 0.0 0.00 0.00 0.00 78 1019.5
20260507050503 47 78 0.0 0.0 0.00 0.00 0.00 78 1019.4
20260507050010 47 78 0.0 0.0 0.00 0.00 0.00 78 1019.5
20260507045504 47 78 0.0 0.0 0.00 0.00 0.00 76 1019.4
20260507045004 47 78 0.0 0.0 0.00 0.00 0.00 76 1019.4
20260507044510 48 78 0.0 0.0 0.00 0.00 0.00 75 1019.4
20260507044004 48 78 0.0 0.0 0.00 0.00 0.00 75 1019.3
20260507043503 48 78 0.0 0.0 0.00 0.00 0.00 74 1019.3
20260507043008 48 78 0.0 0.0 0.00 0.00 0.00 74 1019.3
20260507042505 49 78 0.0 0.0 0.00 0.00 0.00 73 1019.3
20260507042004 49 78 0.0 0.0 0.00 0.00 0.00 73 1019.3
20260507041510 50 78 0.0 0.0 0.00 0.00 0.00 73 1019.3
20260507041005 50 78 0.0 0.0 0.00 0.00 0.00 72 1019.2
20260507040504 50 78 0.0 0.0 0.00 0.00 0.00 71 1019.2
20260507040009 51 78 0.0 0.0 0.00 0.00 0.00 71 1019.4
20260507035502 51 78 0.0 0.0 0.00 0.00 0.00 70 1019.4
20260507035005 51 78 0.0 0.0 0.00 0.00 0.00 70 1019.4
20260507034514 51 78 0.0 0.0 0.00 0.00 0.00 68 1019.5
20260507034004 52 78 0.0 0.0 0.00 0.00 0.00 68 1019.5
20260507033503 52 78 0.0 0.0 0.00 0.00 0.00 70 1019.3
20260507033012 52 78 0.0 0.0 0.00 0.00 0.00 70 1019.3
20260507032503 52 78 0.0 0.0 0.00 0.00 0.00 70 1019.2
20260507032006 52 78 0.0 0.0 0.00 0.00 0.00 68 1019.2
20260507031513 53 78 0.0 0.0 0.00 0.00 0.00 67 1019.3
20260507031005 53 78 0.0 0.0 0.00 0.00 0.00 67 1019.3
20260507030506 53 78 0.0 0.0 0.00 0.00 0.00 66 1019.3
20260507030013 53 78 0.0 0.0 0.00 0.00 0.00 65 1019.2